Tracking 31027 objects as of 19-Jul-2025
HD Live streaming from Space Station
objects crossing your sky now

PEGASUS R/B

Track PEGASUS R/B now!
10-day predictions


NORAD ID: 25506
Int'l Code: 1998-060B
Perigee: 724.0 km
Apogee: 756.3 km
Inclination: 25.0 °
Period: 99.5 minutes
Semi major axis: 7111 km
RCS: 1.6048 m2 (large)
Launch date: October 23, 1998
Source: United States (US)
Launch site: Pegasus launched from Eastern Range Air Space (ERAS)

Note: This is a ROCKET BODY
Your satellite tracking list
GEOTAIL
Track 1 satellite(s)




NASA's NSSDC Master Catalog

Two Line Element Set (TLE):
1 25506U 98060B   25199.54075914  .00000410  00000-0  59973-4 0  9994
2 25506  24.9955 141.1265 0022713 152.2211   8.6860 14.47758644413841
Source of the keplerian elements: AFSPC